Date String (YYYY-MM-DD hh:mm:ss) UTC,Instrument flags,Ambient pressure (hPa),Sample flow (lpm),Bypass flow (lpm),Sample temperature (°C),Ambient temperature (°C),ASC tube jacket temperature (°C),LED temperature (°C),Box temperature (°C),Sample RH (%),Span deviation,Mass concentration (μg/m³),Mass concentration (μg/m³),Mass concentration (μg/m³)
DateTimeUTC,F1_M11,P_M11,Q1_M11,Q2_M11,T1_M11,T2_M11,T3_M11,T4_M11,T5_M11,U1_M11,ZSPAN_M11,X0_M11,X2_M11,X1_M11
2021-11-08 04:00:00,,0824.7,5.00,0.00,30.0,29.0,00.0,39.1,31.5,06.4,0000.0,0001.93,0001.17,0000.91
2021-11-08 04:01:00,,0824.8,5.00,0.00,30.0,28.9,00.0,39.1,31.5,06.4,0000.0,0001.92,0001.17,0000.91
2021-11-08 04:02:00,,0824.8,5.00,0.00,30.0,28.9,00.0,39.1,31.6,06.4,0000.0,0001.90,0001.16,0000.92
2021-11-08 04:03:00,,0824.9,5.00,0.00,30.0,29.0,00.0,39.1,31.6,06.4,0000.0,0001.92,0001.18,0000.93
2021-11-08 04:04:00,,0825.1,5.00,0.00,30.0,29.0,00.0,39.1,31.7,06.5,0000.0,0002.02,0001.21,0000.93
2021-11-08 04:05:00,,0825.1,5.00,0.00,29.9,29.0,00.0,39.1,31.6,06.6,0000.0,0002.06,0001.22,0000.92
2021-11-08 04:06:00,,0825.1,4.99,0.00,29.9,28.9,00.0,39.1,31.6,06.9,0000.0,0002.01,0001.20,0000.91
2021-11-08 04:07:00,,0825.1,5.00,0.00,29.9,28.9,00.0,39.0,31.5,06.9,0000.0,0002.38,0001.29,0000.90
2021-11-08 04:08:00,,0825.1,5.00,0.00,29.8,28.9,00.0,39.0,31.5,06.8,0000.0,0002.55,0001.33,0000.91
2021-11-08 04:09:00,,0825.1,5.01,0.00,29.8,28.8,00.0,39.0,31.4,06.8,0000.0,0002.57,0001.35,0000.90
2021-11-08 04:10:00,,0825.1,5.00,0.00,29.8,28.8,00.0,39.0,31.4,06.6,0000.0,0002.50,0001.31,0000.89
2021-11-08 04:11:00,,0825.1,5.01,0.00,29.7,28.8,00.0,39.0,31.4,06.5,0000.0,0002.40,0001.30,0000.88
2021-11-08 04:12:00,,0825.1,5.01,0.00,29.7,28.8,00.0,38.9,31.4,06.6,0000.0,0002.39,0001.29,0000.87
2021-11-08 04:13:00,,0825.1,5.00,0.00,29.7,28.8,00.0,38.9,31.3,06.6,0000.0,0002.53,0001.33,0000.87
2021-11-08 04:14:00,,0825.2,5.00,0.00,29.7,28.7,00.0,38.9,31.3,06.8,0000.0,0002.54,0001.33,0000.86
2021-11-08 04:15:00,,0825.2,5.00,0.00,29.6,28.7,00.0,38.9,31.3,07.0,0000.0,0002.50,0001.33,0000.87
2021-11-08 04:16:00,,0825.2,5.00,0.00,29.6,28.6,00.0,38.8,31.2,07.0,0000.0,0002.60,0001.37,0000.89
2021-11-08 04:17:00,,0825.1,5.00,0.00,29.6,28.6,00.0,38.8,31.2,07.0,0000.0,0002.72,0001.41,0000.91
2021-11-08 04:18:00,,0825.2,5.01,0.00,29.5,28.6,00.0,38.8,31.2,07.0,0000.0,0002.43,0001.36,0000.95
2021-11-08 04:19:00,,0825.1,5.00,0.00,29.5,28.6,00.0,38.8,31.2,07.0,0000.0,0002.40,0001.37,0000.96
2021-11-08 04:20:00,,0825.1,5.00,0.00,29.5,28.6,00.0,38.8,31.2,06.9,0000.0,0002.32,0001.33,0000.98
2021-11-08 04:21:00,,0825.0,5.01,0.00,29.5,28.6,00.0,38.7,31.2,07.0,0000.0,0002.41,0001.34,0001.00
2021-11-08 04:22:00,,0825.0,5.01,0.00,29.5,28.6,00.0,38.7,31.2,07.0,0000.0,0002.46,0001.38,0001.03
2021-11-08 04:23:00,,0825.0,4.99,0.00,29.5,28.6,00.0,38.7,31.3,06.9,0000.0,0002.46,0001.40,0001.04
2021-11-08 04:24:00,,0825.0,5.01,0.00,29.5,28.7,00.0,38.7,31.3,06.8,0000.0,0003.29,0001.41,0001.06
2021-11-08 04:25:00,,0825.0,5.00,0.00,29.6,28.7,00.0,38.7,31.3,06.7,0000.0,0003.67,0001.42,0001.07
2021-11-08 04:26:00,,0825.1,4.99,0.00,29.5,28.7,00.0,38.7,31.3,06.6,0000.0,0003.70,0001.43,0001.06
2021-11-08 04:27:00,,0825.1,5.00,0.00,29.5,28.7,00.0,38.7,31.2,06.6,0000.0,0004.27,0001.39,0001.04
2021-11-08 04:28:00,,0825.1,5.00,0.00,29.5,28.7,00.0,38.7,31.2,06.6,0000.0,0004.78,0001.40,0001.04
2021-11-08 04:29:00,,0825.1,4.99,0.00,29.5,28.7,00.0,38.7,31.2,06.7,0000.0,0004.78,0001.39,0001.02
2021-11-08 04:30:00,,0825.2,5.01,0.00,29.5,28.7,00.0,38.6,31.2,06.6,0000.0,0004.61,0001.35,0000.99
2021-11-08 04:31:00,,0825.2,5.01,0.00,29.5,28.6,00.0,38.6,31.1,06.5,0000.0,0004.57,0001.33,0000.98
2021-11-08 04:32:00,,0825.2,4.99,0.00,29.4,28.6,00.0,38.6,31.1,06.3,0000.0,0004.46,0001.32,0000.95
2021-11-08 04:33:00,,0825.2,5.01,0.00,29.4,28.6,00.0,38.6,31.0,06.3,0000.0,0004.53,0001.33,0000.94
2021-11-08 04:34:00,,0825.2,4.99,0.00,29.4,28.5,00.0,38.6,31.0,06.3,0000.0,0004.69,0001.32,0000.94
2021-11-08 04:35:00,,0825.1,5.01,0.00,29.4,28.5,00.0,38.6,31.0,06.3,0000.0,0003.82,0001.27,0000.92
2021-11-08 04:36:00,,0825.1,4.99,0.00,29.4,28.5,00.0,38.6,31.0,06.3,0000.0,0003.36,0001.26,0000.92
2021-11-08 04:37:00,,0825.1,5.01,0.00,29.3,28.5,00.0,38.5,31.0,06.3,0000.0,0003.31,0001.23,0000.92
2021-11-08 04:38:00,,0825.0,5.00,0.00,29.3,28.5,00.0,38.5,31.0,06.2,0000.0,0002.87,0001.23,0000.92
2021-11-08 04:39:00,,0824.9,4.99,0.00,29.3,28.5,00.0,38.5,31.0,06.1,0000.0,0001.94,0001.19,0000.92
2021-11-08 04:40:00,,0825.0,5.00,0.00,29.3,28.5,00.0,38.5,31.0,06.2,0000.0,0001.85,0001.15,0000.92
2021-11-08 04:41:00,,0825.0,4.99,0.00,29.3,28.5,00.0,38.5,31.0,06.1,0000.0,0001.81,0001.15,0000.92
2021-11-08 04:42:00,,0825.0,5.00,0.00,29.3,28.5,00.0,38.5,31.0,06.2,0000.0,0001.79,0001.15,0000.93
2021-11-08 04:43:00,,0824.9,5.01,0.00,29.3,28.5,00.0,38.5,31.0,06.2,0000.0,0001.80,0001.16,0000.94
2021-11-08 04:44:00,,0824.9,5.00,0.00,29.4,28.6,00.0,38.5,31.0,06.2,0000.0,0002.08,0001.14,0000.93
2021-11-08 04:45:00,,0825.0,5.00,0.00,29.4,28.6,00.0,38.5,31.1,06.2,0000.0,0002.41,0001.14,0000.94
2021-11-08 04:46:00,,0825.1,5.00,0.00,29.4,28.6,00.0,38.5,31.1,06.2,0000.0,0002.35,0001.14,0000.94
2021-11-08 04:47:00,,0825.0,5.00,0.00,29.4,28.6,00.0,38.5,31.1,06.1,0000.0,0002.28,0001.11,0000.93
2021-11-08 04:48:00,,0825.0,4.99,0.00,29.3,28.5,00.0,38.5,31.0,06.3,0000.0,0002.24,0001.09,0000.92
2021-11-08 04:49:00,,0825.0,5.00,0.00,29.3,28.5,00.0,38.5,31.0,06.3,0000.0,0002.26,0001.09,0000.93
2021-11-08 04:50:00,,0825.0,5.01,0.00,29.3,28.4,00.0,38.4,30.9,06.3,0000.0,0002.30,0001.09,0000.92
2021-11-08 04:51:00,,0825.0,5.01,0.00,29.3,28.4,00.0,38.4,30.9,06.2,0000.0,0002.29,0001.09,0000.91
2021-11-08 04:52:00,,0825.0,5.01,0.00,29.3,28.4,00.0,38.4,30.9,06.2,0000.0,0002.28,0001.08,0000.91
2021-11-08 04:53:00,,0825.0,5.00,0.00,29.2,28.4,00.0,38.4,30.8,06.2,0000.0,0002.30,0001.09,0000.90
2021-11-08 04:54:00,,0824.9,5.01,0.00,29.3,28.4,00.0,38.4,30.9,06.1,0000.0,0002.29,0001.09,0000.91
2021-11-08 04:55:00,,0824.9,5.00,0.00,29.3,28.4,00.0,38.4,30.9,06.1,0000.0,0002.13,0001.13,0000.92
2021-11-08 04:56:00,,0824.9,4.99,0.00,29.3,28.4,00.0,38.4,30.9,06.1,0000.0,0001.59,0001.11,0000.93
2021-11-08 04:57:00,,0824.9,5.00,0.00,29.3,28.5,00.0,38.4,31.0,06.1,0000.0,0001.60,0001.12,0000.93
2021-11-08 04:58:00,,0824.9,5.00,0.00,29.3,28.5,00.0,38.4,31.0,06.2,0000.0,0001.62,0001.13,0000.93
2021-11-08 04:59:00,,0825.0,5.01,0.00,29.3,28.5,00.0,38.4,31.0,06.1,0000.0,0001.70,0001.13,0000.93
